Location: Carrer del Canonge
(41.4901°N, 2.2931°E)
Time: 05:03:43
(UTC+00:00)

Cosmos 1867 - Pass Details

Date: 18 September 2020
Orbit: 777 x 799 km, 65.0° (Epoch: 25 October)

Event Time Altitude Azimuth Distance (km) Brightness Sun altitude
Rises 20:10:05 0° 321° (NW) 3,311 7.8 -25.3°
Reaches altitude 10° 20:12:37 10° 315° (NW) 2,377 7.0 -25.7°
Maximum altitude 20:17:46 44° 245° (WSW) 1,096 4.5 -26.6°
Enters shadow 20:19:19 35° 205° (SSW) 1,265 4.5 -26.8°
